| time (UTC) | temp F | wind direction | speed MPH | gust MPH | rain 1hr in | rain 24hr in | rain mn in | humidity % | barometer mb |
| 20260906094504 | 82 | 0 | 2.0 | 0.0 | 0.00 | 0.00 | 0.00 | 30 | 1024.0 |
| 20260906090003 | 75 | 350 | 3.0 | 0.0 | 0.00 | 0.00 | 0.00 | 38 | 1024.0 |
| 20260906084503 | 75 | 350 | 3.0 | 0.0 | 0.00 | 0.00 | 0.00 | 38 | 1024.0 |
| 20260906081503 | 75 | 340 | 3.0 | 0.0 | 0.00 | 0.00 | 0.00 | 38 | 1024.0 |
| 20260906071503 | 72 | 330 | 3.0 | 0.0 | 0.00 | 0.00 | 0.00 | 43 | 1023.0 |
| 20260906070004 | 73 | 320 | 3.0 | 0.0 | 0.00 | 0.00 | 0.00 | 40 | 1023.0 |
| 20260906064504 | 73 | 320 | 3.0 | 0.0 | 0.00 | 0.00 | 0.00 | 40 | 1023.0 |
| 20260906063004 | 73 | 340 | 3.0 | 0.0 | 0.00 | 0.00 | 0.00 | 38 | 1023.0 |
| 20260906060003 | 75 | 350 | 3.0 | 0.0 | 0.00 | 0.00 | 0.00 | 38 | 1023.0 |
| 20260906054503 | 75 | 350 | 3.0 | 0.0 | 0.00 | 0.00 | 0.00 | 38 | 1023.0 |
| 20260906053003 | 77 | 300 | 6.0 | 0.0 | 0.00 | 0.00 | 0.00 | 36 | 1023.0 |
| 20260906044503 | 75 | 320 | 5.0 | 0.0 | 0.00 | 0.00 | 0.00 | 38 | 1023.0 |
| 20260906040004 | 77 | 320 | 7.0 | 0.0 | 0.00 | 0.00 | 0.00 | 36 | 1023.0 |
| 20260906034504 | 77 | 320 | 7.0 | 0.0 | 0.00 | 0.00 | 0.00 | 36 | 1023.0 |
| 20260906030004 | 79 | 350 | 3.0 | 0.0 | 0.00 | 0.00 | 0.00 | 34 | 1023.0 |
| 20260906024504 | 79 | 350 | 3.0 | 0.0 | 0.00 | 0.00 | 0.00 | 34 | 1023.0 |
| 20260906023004 | 79 | 10 | 3.0 | 0.0 | 0.00 | 0.00 | 0.00 | 34 | 1023.0 |
| 20260906021503 | 79 | 10 | 3.0 | 0.0 | 0.00 | 0.00 | 0.00 | 34 | 1023.0 |
| 20260906020004 | 81 | 0 | 1.0 | 0.0 | 0.00 | 0.00 | 0.00 | 32 | 1023.0 |
| 20260906014503 | 81 | 0 | 1.0 | 0.0 | 0.00 | 0.00 | 0.00 | 32 | 1023.0 |
| 20260906003003 | 79 | 100 | 3.0 | 0.0 | 0.00 | 0.00 | 0.00 | 34 | 1023.0 |
| 20260905223004 | 82 | 70 | 1.0 | 0.0 | 0.00 | 0.00 | 0.00 | 30 | 1023.0 |
| 20260905221504 | 82 | 70 | 1.0 | 0.0 | 0.00 | 0.00 | 0.00 | 30 | 1023.0 |
| 20260905214504 | 84 | 60 | 3.0 | 0.0 | 0.00 | 0.00 | 0.00 | 28 | 1023.0 |
| 20260905213004 | 86 | 40 | 5.0 | 0.0 | 0.00 | 0.00 | 0.00 | 27 | 1023.0 |
| 20260905210003 | 88 | 240 | 7.0 | 0.0 | 0.00 | 0.00 | 0.00 | 25 | 1022.0 |
| 20260905203004 | 88 | 240 | 1.0 | 0.0 | 0.00 | 0.00 | 0.00 | 25 | 1022.0 |
| 20260905184504 | 91 | 240 | 9.0 | 0.0 | 0.00 | 0.00 | 0.00 | 22 | 1022.0 |
| 20260905181503 | 93 | 250 | 12.0 | 0.0 | 0.00 | 0.00 | 0.00 | 20 | 1021.0 |
| 20260905180004 | 93 | 250 | 12.0 | 0.0 | 0.00 | 0.00 | 0.00 | 20 | 1021.0 |
| 20260905174504 | 93 | 250 | 12.0 | 0.0 | 0.00 | 0.00 | 0.00 | 20 | 1021.0 |
| 20260905173004 | 93 | 250 | 9.0 | 0.0 | 0.00 | 0.00 | 0.00 | 20 | 1021.0 |
| 20260905171503 | 93 | 250 | 9.0 | 0.0 | 0.00 | 0.00 | 0.00 | 20 | 1021.0 |
| 20260905164503 | 95 | 250 | 1.0 | 0.0 | 0.00 | 0.00 | 0.00 | 19 | 1022.0 |
| 20260905161503 | 95 | 270 | 1.0 | 0.0 | 0.00 | 0.00 | 0.00 | 19 | 1021.0 |
| 20260905160003 | 97 | 290 | 12.0 | 0.0 | 0.00 | 0.00 | 0.00 | 18 | 1021.0 |
| 20260905154503 | 97 | 290 | 12.0 | 0.0 | 0.00 | 0.00 | 0.00 | 18 | 1021.0 |
| 20260905153004 | 97 | 280 | 15.0 | 0.0 | 0.00 | 0.00 | 0.00 | 18 | 1021.0 |
| 20260905143004 | 97 | 260 | 14.0 | 0.0 | 0.00 | 0.00 | 0.00 | 16 | 1022.0 |
| 20260905140004 | 97 | 250 | 12.0 | 0.0 | 0.00 | 0.00 | 0.00 | 22 | 1022.0 |
| 20260905131503 | 97 | 240 | 9.0 | 0.0 | 0.00 | 0.00 | 0.00 | 20 | 1022.0 |
| 20260905130004 | 97 | 240 | 6.0 | 0.0 | 0.00 | 0.00 | 0.00 | 20 | 1023.0 |
| 20260905124503 | 97 | 240 | 6.0 | 0.0 | 0.00 | 0.00 | 0.00 | 20 | 1023.0 |
| 20260905123004 | 95 | 270 | 1.0 | 0.0 | 0.00 | 0.00 | 0.00 | 21 | 1023.0 |
| 20260905120004 | 93 | 190 | 3.0 | 0.0 | 0.00 | 0.00 | 0.00 | 23 | 1023.0 |
| 20260905113003 | 91 | 190 | 3.0 | 0.0 | 0.00 | 0.00 | 0.00 | 24 | 1023.0 |
| 20260905111503 | 91 | 190 | 3.0 | 0.0 | 0.00 | 0.00 | 0.00 | 24 | 1023.0 |
| 20260905110003 | 90 | 0 | 2.0 | 0.0 | 0.00 | 0.00 | 0.00 | 25 | 1024.0 |
| 20260905104503 | 90 | 0 | 2.0 | 0.0 | 0.00 | 0.00 | 0.00 | 25 | 1024.0 |